Waarnemingen

Advertentie
Mijn weer
S. Maria Di Leuca, Italië (16360): temperatuur & dauwpunt: 11.10.2017 03:00:00 - 17.10.2017 03:00:00 (CEST)S. Maria Di Leuca, Italië (16360): windsnelheid: 11.10.2017 03:00:00 - 17.10.2017 03:00:00 (CEST)S. Maria Di Leuca, Italië (16360): windrichting: 11.10.2017 03:00:00 - 17.10.2017 03:00:00 (CEST)S. Maria Di Leuca, Italië (16360): luchtdruk: 11.10.2017 03:00:00 - 17.10.2017 03:00:00 (CEST)S. Maria Di Leuca, Italië (16360): zicht: 11.10.2017 03:00:00 - 17.10.2017 03:00:00 (CEST)S. Maria Di Leuca, Italië (16360): Zonneschijnduur: 11.10.2017 03:00:00 - 17.10.2017 03:00:00 (CEST)
Datum & Tijd tt [°C] td [°C] ff [km/u] ff [kn] dd ppp [hPa] vv [km] sd [min]
17.10.2017 03:00:00 16,8 13,7 4 2 N 1025,3 10 -
17.10.2017 02:00:00 17,0 13,9 9 5 WNW 1025,5 10 -
17.10.2017 01:00:00 17,2 14,7 9 5 WNW 1025,5 10 -
17.10.2017 00:00:00 18,0 16,9 9 5 NNW 1025,5 10 -
16.10.2017 23:00:00 18,4 17,2 9 5 N 1025,5 10 -
16.10.2017 22:00:00 19,0 17,8 18 10 NNO 1025,4 10 -
16.10.2017 21:00:00 19,2 18,0 18 10 NNO 1025,4 10 -
16.10.2017 20:00:00 19,2 18,6 18 10 NNO 1025,4 10 -
16.10.2017 19:00:00 21,2 18,4 9 5 NNO 1025,1 9 0
16.10.2017 18:00:00 21,6 19,9 0 0 N 1025,1 10 30
16.10.2017 17:00:00 22,4 19,6 9 5 WZW 1025,2 10 30
16.10.2017 16:00:00 22,6 19,6 9 5 WZW 1025,2 10 60
16.10.2017 15:00:00 23,4 20,3 11 6 WZW 1025,4 10 60
16.10.2017 14:00:00 23,6 19,5 9 5 WZW 1025,3 10 60
16.10.2017 13:00:00 23,4 17,8 9 5 WZW 1025,8 10 60
16.10.2017 12:00:00 22,6 16,6 11 6 NO 1025,8 10 60
16.10.2017 11:00:00 20,0 16,0 16 9 NNO 1025,9 10 60
16.10.2017 10:00:00 18,8 16,0 21 11 NNO 1025,7 10 48
16.10.2017 09:00:00 17,0 14,7 18 10 N 1025,5 6 12
16.10.2017 08:00:00 16,4 13,7 16 9 NNO 1025,2 4,0 0
16.10.2017 07:00:00 16,4 13,7 18 10 N 1025,5 2,5 -
16.10.2017 06:00:00 16,4 13,7 18 10 N 1025,5 6 -
16.10.2017 05:00:00 16,4 13,9 16 9 N 1025,5 10 -
16.10.2017 04:00:00 17,0 14,5 13 7 NNW 1025,8 10 -
16.10.2017 03:00:00 17,0 14,5 13 7 NNW 1026,0 10 -
16.10.2017 02:00:00 17,0 14,5 11 6 NNW 1026,0 10 -
16.10.2017 01:00:00 17,0 -30,0 13 7 N 1025,9 10 -
16.10.2017 00:00:00 17,0 15,0 18 10 NNO 1025,9 10 -
15.10.2017 23:00:00 17,2 15,5 16 9 N 1025,9 10 -
15.10.2017 22:00:00 17,6 16,6 18 10 N 1025,5 10 -
15.10.2017 21:00:00 18,0 16,7 16 9 N 1025,3 10 -
15.10.2017 20:00:00 18,8 14,1 21 11 NNO 1025,2 10 -
15.10.2017 19:00:00 20,2 16,0 9 5 NNO 1025,2 10 0
15.10.2017 18:00:00 20,6 13,8 9 5 NNO 1025,2 10 0
15.10.2017 17:00:00 21,4 15,7 18 10 ONO 1025,1 10 60
15.10.2017 16:00:00 21,8 14,4 18 10 ONO 1025,2 10 60
15.10.2017 15:00:00 22,2 14,1 18 10 ONO 1025,4 10 60
15.10.2017 14:00:00 22,2 14,1 18 10 NO 1025,6 10 60
15.10.2017 13:00:00 22,0 13,6 18 10 ONO 1026,1 10 60
15.10.2017 12:00:00 22,2 13,3 21 11 NO 1025,9 10 60
15.10.2017 11:00:00 21,2 14,8 18 10 NNO 1025,3 10 60
15.10.2017 10:00:00 18,8 14,7 18 10 NNO 1024,7 10 60
15.10.2017 09:00:00 18,0 15,6 28 15 NNO 1024,5 10 60
15.10.2017 08:00:00 17,4 15,4 28 15 NNO 1023,9 10 42
15.10.2017 07:00:00 17,4 15,6 29 16 NNO 1023,6 10 -
15.10.2017 06:00:00 17,2 15,5 31 17 N 1023,6 10 -
15.10.2017 05:00:00 17,2 15,7 31 17 N 1023,6 10 -
15.10.2017 04:00:00 17,0 15,4 18 10 N 1023,6 10 -
15.10.2017 03:00:00 17,0 15,4 16 9 N 1023,6 10 -
15.10.2017 02:00:00 17,2 15,0 21 11 NNW 1023,6 10 -
15.10.2017 01:00:00 17,2 15,5 18 10 N 1023,6 10 -
15.10.2017 00:00:00 17,2 15,7 22 12 N 1023,6 10 -
14.10.2017 23:00:00 17,6 16,5 21 11 N 1023,6 10 -
14.10.2017 22:00:00 17,6 16,5 26 14 N 1023,6 10 -
14.10.2017 21:00:00 17,8 16,7 29 16 N 1023,6 10 -
14.10.2017 20:00:00 18,6 16,4 22 12 N 1023,5 10 -
14.10.2017 19:00:00 19,4 14,7 15 8 N 1023,4 10 0
14.10.2017 18:00:00 20,4 13,8 15 8 N 1023,2 10 48
14.10.2017 17:00:00 21,2 14,4 24 13 NNO 1023,0 10 60
14.10.2017 16:00:00 22,0 12,3 29 16 NNO 1022,9 10 60
14.10.2017 15:00:00 22,0 12,3 28 15 N 1023,0 10 60
14.10.2017 14:00:00 22,0 13,9 24 13 N 1023,2 10 60
14.10.2017 13:00:00 22,4 14,8 26 14 N 1023,5 10 60
14.10.2017 12:00:00 21,6 14,5 24 13 N 1024,0 10 60
14.10.2017 11:00:00 20,2 15,0 18 10 N 1024,1 10 60
14.10.2017 10:00:00 19,0 15,7 24 13 N 1023,7 10 60
14.10.2017 09:00:00 17,8 16,1 24 13 N 1023,7 10 60
14.10.2017 08:00:00 16,6 14,8 26 14 N 1022,9 10 12
14.10.2017 07:00:00 16,2 14,5 26 14 N 1022,6 10 -
14.10.2017 06:00:00 16,4 14,9 18 10 N 1022,6 10 -
14.10.2017 05:00:00 16,8 15,5 24 13 N 1022,8 10 -
14.10.2017 04:00:00 16,8 15,5 24 13 N 1022,9 10 -
14.10.2017 03:00:00 16,8 15,5 16 9 N 1022,9 10 -
14.10.2017 02:00:00 16,8 15,3 26 14 N 1022,9 10 -
14.10.2017 01:00:00 16,8 15,5 28 15 N 1023,0 10 -
14.10.2017 00:00:00 16,8 15,3 24 13 N 1023,0 10 -
13.10.2017 23:00:00 16,8 15,3 22 12 N 1023,0 10 -
13.10.2017 22:00:00 17,0 15,7 22 12 NNO 1022,8 10 -
13.10.2017 21:00:00 17,0 15,4 22 12 N 1022,5 10 -
13.10.2017 20:00:00 17,8 15,4 24 13 NNO 1022,3 10 -
13.10.2017 19:00:00 18,6 14,3 24 13 N 1022,2 10 0
13.10.2017 18:00:00 20,0 10,4 28 15 N 1022,1 10 60
13.10.2017 17:00:00 20,6 12,6 34 18 N 1022,1 10 60
13.10.2017 16:00:00 21,6 11,3 26 14 NNO 1022,2 10 60
13.10.2017 15:00:00 21,4 11,4 29 16 N 1022,5 10 60
13.10.2017 14:00:00 21,6 11,9 28 15 N 1022,8 10 60
13.10.2017 13:00:00 21,4 13,8 28 15 NNO 1023,2 10 60
13.10.2017 12:00:00 20,6 13,8 31 17 NNO 1023,4 10 60
13.10.2017 11:00:00 19,8 15,2 26 14 NNO 1023,5 10 60
13.10.2017 10:00:00 18,8 16,0 18 10 NNO 1023,3 10 60
13.10.2017 09:00:00 17,0 15,0 26 14 NNO 1023,3 15 60
13.10.2017 08:00:00 16,0 14,0 22 12 NNO 1023,4 10 0
13.10.2017 07:00:00 15,6 13,8 22 12 NNO 1023,5 10 0
13.10.2017 06:00:00 15,2 13,6 21 11 N 1023,4 10 -
13.10.2017 05:00:00 15,2 13,6 18 10 N 1023,6 10 -
13.10.2017 04:00:00 15,2 13,9 18 10 N 1023,6 10 -
13.10.2017 03:00:00 15,2 13,9 18 10 N 1023,6 10 -
13.10.2017 02:00:00 15,2 13,9 15 8 NNO 1023,7 10 -
13.10.2017 01:00:00 15,2 13,6 16 9 N 1023,7 10 -
13.10.2017 00:00:00 15,4 14,1 16 9 N 1023,9 10 -
12.10.2017 23:00:00 16,4 15,1 13 7 NNO 1024,1 10 -
12.10.2017 22:00:00 16,6 15,3 13 7 N 1024,0 10 -
12.10.2017 21:00:00 17,0 15,0 13 7 N 1023,9 10 -
12.10.2017 20:00:00 17,8 15,3 8 4 N 1023,9 10 -
12.10.2017 19:00:00 19,0 15,9 4 2 NO 1024,3 10 0
12.10.2017 18:00:00 19,4 15,1 5 3 ONO 1024,2 10 18
12.10.2017 17:00:00 20,0 15,4 8 4 ONO 1024,2 10 60
12.10.2017 16:00:00 20,4 15,2 9 5 ONO 1024,4 10 48
12.10.2017 15:00:00 21,4 15,0 5 3 O 1024,6 10 60
12.10.2017 14:00:00 21,2 14,4 5 3 ZW 1024,8 10 60
12.10.2017 13:00:00 21,6 14,7 11 6 WZW 1024,8 10 60
12.10.2017 12:00:00 21,4 10,9 5 3 NNW 1024,8 10 60
12.10.2017 11:00:00 20,0 13,2 8 4 NO 1024,5 10 60
12.10.2017 10:00:00 18,4 12,4 13 7 NNO 1024,2 10 60
12.10.2017 09:00:00 17,0 14,3 13 7 NNO 1024,1 10 60
12.10.2017 08:00:00 15,4 13,6 15 8 N 1023,8 10 30
12.10.2017 07:00:00 15,0 13,0 15 8 N 1023,4 10 -
12.10.2017 06:00:00 16,2 14,0 16 9 NO 1023,3 10 -
12.10.2017 05:00:00 16,2 14,5 18 10 NNO 1023,3 10 -
12.10.2017 04:00:00 16,4 14,8 18 10 NO 1023,3 10 -
12.10.2017 03:00:00 16,4 15,1 18 10 N 1023,3 10 -
12.10.2017 02:00:00 16,8 16,3 18 10 NNO 1023,3 10 -
12.10.2017 01:00:00 16,8 16,2 18 10 NNO 1023,3 10 -
12.10.2017 00:00:00 16,8 16,3 18 10 N 1023,3 10 -
11.10.2017 23:00:00 16,8 16,0 18 10 NNO 1023,2 10 -
11.10.2017 22:00:00 16,4 16,4 18 10 NNO 1023,1 10 -
11.10.2017 21:00:00 17,4 17,4 18 10 NNO 1023,0 10 -
11.10.2017 20:00:00 18,0 17,2 18 10 NO 1022,4 10 -
11.10.2017 19:00:00 18,8 15,1 16 9 NNO 1021,4 10 0
11.10.2017 18:00:00 19,8 14,4 16 9 NO 1021,1 15 60
11.10.2017 17:00:00 20,4 14,5 18 10 ONO 1020,9 10 60
11.10.2017 16:00:00 20,8 12,8 16 9 ONO 1021,0 10 42
11.10.2017 15:00:00 20,8 11,2 16 9 ONO 1021,0 10 12
11.10.2017 14:00:00 21,2 11,5 15 8 ONO 1021,0 10 30
11.10.2017 13:00:00 21,4 10,5 16 9 ONO 1021,1 10 54
11.10.2017 12:00:00 21,0 12,7 21 11 ONO 1021,3 10 60
11.10.2017 11:00:00 20,8 12,5 16 9 ONO 1020,8 10 60
11.10.2017 10:00:00 20,2 13,7 16 9 ONO 1020,6 10 60
11.10.2017 09:00:00 18,8 15,3 13 7 ONO 1020,4 10 42
11.10.2017 08:00:00 18,4 16,0 15 8 ONO 1020,5 10 0
11.10.2017 07:00:00 18,4 15,7 11 6 ONO 1020,3 10 -
11.10.2017 06:00:00 18,2 16,0 13 7 O 1020,3 10 -
11.10.2017 05:00:00 18,2 16,0 9 5 O 1020,3 10 -
11.10.2017 04:00:00 18,8 16,8 5 3 O 1020,3 10 -
11.10.2017 03:00:00 18,8 17,0 8 4 O 1020,3 10 -

tt = temperatuur
td = dauwpunt
ff = windsnelheid
dd = windrichting
ppp = luchtdruk
vv = zicht
sd = Zonneschijnduur

Weerstations in de omgeving